Flag for Germany Weather past 2 weeks in Lemgo, North Rhine-Westphalia, Germany

Now
43 °F

Fog.


Feels Like: 43 °F
Forecast: 49 / 74 °F
Wind: 1 mph from North

Location: Bad Lippspringe


UV Index: 3 (Moderate)

Visibility: 1 mi


Pressure: 30.13 "Hg

Humidity: 97%

Dew point: 42 °F

Location of LemgoLocation

Historic Weather in Lemgo

°F

Lemgo temperature yesterday

Maximum temperature yesterday: 67 °F (at 2:00 PM)
Minimum temperature yesterday: 40 °F (at 6:00 AM)
Average temperature yesterday: 53 °F

Past Weeks' High & Low Weather Summary

 TemperatureHumidityPressure
High67 °F (Apr 23, 2:00 PM)98% (Apr 12, 7:00 AM)30.47 "Hg (Apr 12, 7:00 AM)
Low28 °F (Apr 16, 7:00 AM)34% (Apr 17, 4:00 PM)29.65 "Hg (Apr 21, 5:00 PM)
Average49 °F76%30.05 "Hg
* Reported Apr 9 5:00 AM — Apr 24 5:00 AM, Lemgo, Weather by CustomWeather, © 2014

Note: Actual official high and low records may vary slightly from our data, if they occured in-between our weather recording intervals... More about our weather records

Advertising

Historic Weather Conditions — Data for Previous 24 hours

 ConditionsComfort  
Time TempWeatherWind HumidityBarometerVisibility
5:00 AM
Apr 24
42 °FFog.1 mph97%30.14 "Hg1 mi
4:00 AM43 °FFog.1 mph97%30.13 "Hg2 mi
3:00 AM42 °FFog.1 mph95%30.14 "Hg2 mi
2:00 AM44 °FFog.1 mph95%30.15 "Hg3 mi
1:00 AM44 °FFog.1 mph95%30.15 "Hg4 mi
12:00 AM47 °FFog.1 mph95%30.15 "Hg4 mi
11:00 PM
Apr 23
48 °FFog.1 mph96%30.15 "Hg4 mi
10:00 PM48 °FClear.2 mph95%30.14 "Hg7 mi
9:00 PM54 °FPassing clouds.2 mph91%30.13 "Hg16 mi
8:00 PM59 °FOvercast.1 mph76%30.10 "Hg18 mi
7:00 PM60 °FOvercast.3 mph74%30.09 "Hg9 mi
6:00 PM59 °FLight rain. Overcast.2 mph80%30.11 "Hg3 mi
5:00 PM64 °FLight rain. Overcast.1 mph57%30.09 "Hg5 mi
4:00 PM67 °FPassing clouds.1 mph50%30.08 "Hg8 mi
3:00 PM67 °FScattered clouds.1 mph47%30.09 "Hg7 mi
2:00 PM67 °FScattered clouds.1 mph46%30.10 "Hg7 mi
1:00 PM65 °FPassing clouds.2 mph51%30.11 "Hg6 mi
12:00 PM65 °FSunny.2 mph55%30.11 "Hg5 mi
11:00 AM61 °FPassing clouds.2 mph63%30.11 "Hg4 mi
10:00 AM58 °FPassing clouds.1 mph70%30.11 "Hg4 mi
9:00 AM52 °FFog.1 mph94%30.11 "Hg2 mi
8:00 AM47 °FFog.No wind98%30.11 "Hg1 mi
7:00 AM41 °FFog.1 mph97%30.10 "Hg1 mi
6:00 AM40 °FClear.1 mph97%30.09 "Hg1 mi
Weather by CustomWeather, © 2014

See weather overview